Regional Weather Roundup
Issued by NWS Wilmington, NC

Home | Current Version | Previous Version | Text Only | Print | Product List | Glossary On
Versions: 1 2 3 4 5 6 7 8 9 10 11 12 13 14 15 16 17 18 19 20 21 22 23 24 25 26 27 28 29 30 31 32 33 34 35 36 37 38 39 40 41 42 43 44 45 46 47 48 49 50
000
ASUS42 KILM 281113
RWRILM
RWRILM
REGIONAL HOURLY WEATHER ROUNDUP
NATIONAL WEATHER SERVICE WILMINGTON NC
700 AM EDT SAT MAR 28 2015

NOTE: "FAIR" INDICATES FEW OR NO CLOUDS BELOW 12,000 FEET WITH NO
SIGNIFICANT WEATHER AND/OR OBSTRUCTIONS TO VISIBILITY.

...............WFO WILMINGTON COUNTY WARNING AREA...............

......COASTAL NC AND SC COUNTIES......

CITY           SKY/WX    TMP DP  RH WIND       PRES   REMARKS
WILMINGTON     RAIN      42  39  89 NW17      29.94R FOG
SOUTHPORT      CLOUDY    42  40  93 NW7       29.94R
N MYRTLE BEACH MOCLDY    42  40  92 CALM      29.95R
MYRTLE BEACH   MOCLDY    46  43  87 NW8       29.97R

......INLAND NC AND SC COUNTIES.......

CITY           SKY/WX    TMP DP  RH WIND       PRES   REMARKS
LUMBERTON      CLOUDY    42  38  85 N6        29.96R
ELIZABETHTOWN  MOCLDY    39  38  94 CALM      29.96R
WHITEVILLE     CLOUDY    41  38  87 N3        29.95R
FLORENCE       CLOUDY    43  35  73 N8        29.97R
DARLINGTON     CLOUDY    41  34  75 N5        29.99R

....................REST OF NORTH CAROLINA......................

.........EASTERN NC.........

CITY           SKY/WX    TMP DP  RH WIND       PRES   REMARKS
CAPE HATTERAS  CLOUDY    42  36  79 NW12G22   29.86R
JACKSONVILLE   CLOUDY    41  36  81 NW3       29.94R
MOREHEAD CITY  PTCLDY    41  38  89 NW15      29.90R
KENANSVILLE    CLOUDY    39  35  84 N6        29.95R WCI  35
NEW BERN       CLOUDY    41  37  86 NW9       29.93R
ELIZABETH CITY CLOUDY    39  34  82 NW13      29.88R WCI  31

.........CENTRAL NC.........

CITY           SKY/WX    TMP DP  RH WIND       PRES   REMARKS
RALEIGH DURHAM PTCLDY    36  27  69 CALM      29.95R
ROCKY MOUNT    CLOUDY    36  34  92 CALM      29.94R
ROANOKE RAPIDS NOT AVBL
FAYETTEVILLE   CLOUDY    41  36  82 NW5       29.96R
HOFFMAN        MOCLDY    40  32  74 N3        30.00R

.........WESTERN NC.........

CITY           SKY/WX    TMP DP  RH WIND       PRES   REMARKS
CHARLOTTE      PTCLDY    35  24  64 NW5       29.98R WCI  31
GREENSBORO     PTCLDY    33  20  58 NW8       29.95R WCI  26
HICKORY        NOT AVBL
BOONE          NOT AVBL
ASHEVILLE      NOT AVBL

.....................REST OF SOUTH CAROLINA.....................

.........EASTERN SC.........

CITY           SKY/WX    TMP DP  RH WIND       PRES   REMARKS
CHARLESTON     PTCLDY    43  41  93 W5        29.99R
BEAUFORT MCAS  PTCLDY    45  37  73 NW10      30.01R
HILTON HEAD    NOT AVBL

.........CENTRAL SC.........

CITY           SKY/WX    TMP DP  RH WIND       PRES   REMARKS
COLUMBIA       PTCLDY    43  27  53 NW8       29.99R
ORANGEBURG     CLEAR     41  35  79 NW5       30.00R
SUMTER SHAW    PTCLDY    40  37  89 W3        29.97R

.........WESTERN SC.........

CITY           SKY/WX    TMP DP  RH WIND       PRES   REMARKS
GREENVILLE     NOT AVBL
ROCK HILL      CLEAR     34  23  64 NW6       29.99R WCI  29
ANDERSON       CLEAR     37  23  56 NW3       30.01R
CLEMSON        NOT AVBL
GREENWOOD      CLEAR     32  29  88 CALM      30.02R


...................COASTAL AND OFFSHORE REPORTS..................

................LOCAL PIERS AND NC RESERVE................


STATION/POSITION TIME  SKY/WX   TEMP    WIND        PRES    VSBY
                                AIR SEA DIR/SP/G
                 (UTC)          (F)     (DEG/KT/KT) (MB)    (MI)
JOHNY MRCER PIER 1000            44 58  310/  9/ 14 1011.9R
NC RESRV MASNBRO NOT AVBL
OCEAN CREST PIER 1102            44 54  280/  9/ 11 1013.1R
SPRINGMAID  PIER 1000            46 56  250/  5/  5 1013.4R


................COASTAL AND OFFSHORE BUOYS................


STATION/POSITION TIME  SKY/WX   TEMP    WIND        PRES    VSBY
                                AIR SEA DIR/SP/G
                 (UTC)          (F)     (DEG/KT/KT) (MB)    (MI)
DIMNDSHOAL 41025 NOT AVBL
CAPE LOOKOUT     1100            42     310/ 12/ 15 1012.3R
ONSLOW BAY 41036 NOT AVBL
5 WRITEBCH 41038 1000            47 56  320/ 14/ 17 1012.3R
MASONBORO  41110 1019               56                N/A
WVE H/P(F/S)=  3/ 8 WND WVE H/P(F/S)=  3/ 8

WILM HARBR 41108 1011               60                N/A
WVE H/P(F/S)=  4/ 8 WND WVE H/P(F/S)=  3/ 8

27WRITEBCH 41037 1000            46 64  350/ 16/ 17 1013.1R
FRYING PAN 41013 1050            51 64  330/ 16/ 19 1013.3R
WVE H/P(F/S)=  6/ 7 WND WVE H/P(F/S)=  5/ 7 SWL H/P/D(F/S/D)=  3/120/ 8

SUNST NRSH 41024 1000            47     310/ 10/ 12   N/A
CAPRS NRSH 41029 1000            49     310/ 14/ 17   N/A
EDISTO     41004 1050            53 68  310/ 17/ 23 1013.5R
WVE H/P(F/S)=  5/ 6 WND WVE H/P(F/S)=  5/ 6 SWL H/P/D(F/S/D)=  3/ 7



..........OFFSHORE BUOYS BEYOND 100 NM OFFSHORE...........
.....IN A TRIANGLE---HAT TO BERMUDA TO BAHAMAS TO HAT.....


STATION/POSITION TIME  SKY/WX   TEMP    WIND        PRES    VSBY
                                AIR SEA DIR/SP/G
                 (UTC)          (F)     (DEG/KT/KT) (MB)    (MI)
150E HAT   41001 NOT AVBL
W BERMUDA  41048 1050            70 69  200/ 27/ 33 1007.3F
WVE H/P(F/S)= 11/ 8 WND WVE H/P(F/S)= 11/ 8 SWL H/P/D(F/S/D)=  2/220/12

ATLANTIC S 41049 1050            74 74  160/ 19/ 25 1020.8R
WVE H/P(F/S)=  7/ 8 WND WVE H/P(F/S)=  7/ 8 SWL H/P/D(F/S/D)=  3/ 80/10

E BAHAMAS  41046 1050            78 79  170/ 19/ 21 1018.4R
WVE H/P(F/S)=  6/ 8 WND WVE H/P(F/S)=  5/ 8 SWL H/P/D(F/S/D)=  3/ 20/11

NE BAHAMAS 41047 1050            76 75  200/ 19/ 23 1014.4R
WVE H/P(F/S)=  7/ 6 WND WVE H/P(F/S)=  7/ 6

120E CANVRL41010 1020            67 75  300/ 23/ 29 1014.3R

END


USA.gov is the U.S. government's official web portal to all federal, state and local government web resources and services.